When you browse on this site, cookies collect data to enhance your experience and personalize the content and advertising you see.
Visit our Privacy Policy to learn more. By continuing to use the site, you agree to this use of cookies and data.
  • en France
  • Liste des pays
  • À 7 jours
  • Température de l'eau
  • Carte satellitaire
  • Carte météo
  • Widgets météo
  • user-avatar
    Se connecter

    Météo par heure à Kaboul

    Ce jour, 16 Juillet, Mardi

    Heure Température Précipitation Vent Pression Humidité
    00:00 +23°C° 0 mm 2 m/s 606 mmHg 24%
    01:00 +22°C° 0 mm 1 m/s 606 mmHg 25%
    02:00 +21°C° 0 mm 1 m/s 605 mmHg 26%
    03:00 +21°C° 0 mm 1 m/s 605 mmHg 27%
    04:00 +20°C° 0 mm 1 m/s 605 mmHg 27%
    05:00 +19°C° 0 mm 2 m/s 605 mmHg 27%
    06:00 +21°C° 0 mm 2 m/s 606 mmHg 24%
    07:00 +24°C° 0 mm 1 m/s 607 mmHg 21%
    08:00 +27°C° 0 mm 1 m/s 608 mmHg 17%
    09:00 +28°C° 0 mm 2 m/s 609 mmHg 16%
    10:00 +30°C° 0 mm 2 m/s 609 mmHg 14%
    11:00 +33°C° 0 mm 3 m/s 609 mmHg 13%
    12:00 +34°C° 0 mm 3 m/s 610 mmHg 12%
    13:00 +35°C° 0 mm 3 m/s 610 mmHg 11%
    14:00 +36°C° 0 mm 4 m/s 610 mmHg 11%
    15:00 +36°C° 0 mm 4 m/s 610 mmHg 11%
    16:00 +36°C° 0 mm 4 m/s 610 mmHg 11%
    17:00 +36°C° 0 mm 4 m/s 610 mmHg 11%
    18:00 +33°C° 0 mm 4 m/s 609 mmHg 21%
    19:00 +30°C° 0 mm 4 m/s 609 mmHg 32%
    20:00 +27°C° 0 mm 4 m/s 608 mmHg 42%
    21:00 +26°C° 0 mm 3 m/s 608 mmHg 48%
    22:00 +25°C° 0 mm 3 m/s 608 mmHg 55%
    23:00 +24°C° 0 mm 2 m/s 608 mmHg 61%

    Demain, 17 Juillet, Mercredi

    Heure Température Précipitation Vent Pression Humidité
    00:00 +23°C° 0 mm 1 m/s 608 mmHg 64%
    01:00 +22°C° 0 mm 1 m/s 607 mmHg 67%
    02:00 +19°C° 0 mm 0 m/s 607 mmHg 70%
    03:00 +19°C° 0 mm 0 m/s 607 mmHg 70%
    04:00 +18°C° 0 mm 0 m/s 606 mmHg 70%
    05:00 +18°C° 0 mm 0 m/s 606 mmHg 70%
    06:00 +20°C° 0 mm 0 m/s 607 mmHg 57%
    07:00 +22°C° 0 mm 0 m/s 608 mmHg 44%
    08:00 +24°C° 0 mm 0 m/s 609 mmHg 32%
    09:00 +28°C° 0 mm 1 m/s 610 mmHg 25%
    10:00 +30°C° 0 mm 1 m/s 610 mmHg 19%
    11:00 +32°C° 0 mm 1 m/s 610 mmHg 13%
    12:00 +34°C° 0 mm 2 m/s 610 mmHg 12%
    13:00 +35°C° 0 mm 2 m/s 610 mmHg 10%
    14:00 +36°C° 0 mm 2 m/s 610 mmHg 9%
    15:00 +36°C° 0 mm 3 m/s 610 mmHg 9%
    16:00 +36°C° 0 mm 3 m/s 610 mmHg 9%
    17:00 +37°C° 0 mm 4 m/s 610 mmHg 10%
    18:00 +34°C° 0 mm 4 m/s 610 mmHg 18%
    19:00 +32°C° 0 mm 4 m/s 609 mmHg 25%
    20:00 +28°C° 0 mm 4 m/s 608 mmHg 33%
    21:00 +27°C° 0 mm 3 m/s 608 mmHg 40%
    22:00 +26°C° 0 mm 2 m/s 608 mmHg 47%
    23:00 +24°C° 0 mm 1 m/s 608 mmHg 54%

    Après-demain, 18 Juillet, Jeudi

    Heure Température Précipitation Vent Pression Humidité
    00:00 +23°C° 0 mm 1 m/s 608 mmHg 58%
    01:00 +23°C° 0 mm 1 m/s 607 mmHg 61%
    02:00 +22°C° 0 mm 1 m/s 607 mmHg 65%
    03:00 +21°C° 0 mm 1 m/s 606 mmHg 66%
    04:00 +20°C° 0 mm 1 m/s 606 mmHg 67%
    05:00 +20°C° 0 mm 1 m/s 606 mmHg 68%
    06:00 +20°C° 0 mm 0 m/s 607 mmHg 55%
    07:00 +22°C° 0 mm 0 m/s 608 mmHg 43%
    08:00 +25°C° 0 mm 0 m/s 609 mmHg 31%
    09:00 +28°C° 0 mm 1 m/s 609 mmHg 24%
    10:00 +30°C° 0 mm 1 m/s 610 mmHg 18%
    11:00 +32°C° 0 mm 1 m/s 610 mmHg 12%
    12:00 +34°C° 0 mm 2 m/s 610 mmHg 11%
    13:00 +35°C° 0 mm 2 m/s 610 mmHg 10%
    14:00 +36°C° 0 mm 2 m/s 610 mmHg 9%
    15:00 +37°C° 0 mm 3 m/s 610 mmHg 8%
    16:00 +37°C° 0 mm 3 m/s 610 mmHg 8%
    17:00 +37°C° 0 mm 4 m/s 610 mmHg 8%
    18:00 +35°C° 0 mm 4 m/s 610 mmHg 13%
    19:00 +33°C° 0 mm 3 m/s 609 mmHg 17%
    20:00 +29°C° 0 mm 3 m/s 609 mmHg 22%
    21:00 +28°C° 0 mm 3 m/s 609 mmHg 31%
    22:00 +27°C° 0 mm 2 m/s 608 mmHg 40%
    23:00 +25°C° 0 mm 2 m/s 608 mmHg 49%

    19 Juillet, Vendredi

    Heure Température Précipitation Vent Pression Humidité
    00:00 +24°C° 0 mm 1 m/s 608 mmHg 54%
    01:00 +23°C° 0 mm 1 m/s 607 mmHg 58%
    02:00 +22°C° 0 mm 1 m/s 607 mmHg 63%
    03:00 +22°C° 0 mm 1 m/s 607 mmHg 65%
    04:00 +19°C° 0 mm 0 m/s 607 mmHg 67%
    05:00 +19°C° 0 mm 0 m/s 606 mmHg 69%
    06:00 +21°C° 0 mm 0 m/s 607 mmHg 58%
    07:00 +23°C° 0 mm 0 m/s 608 mmHg 46%
    08:00 +25°C° 0 mm 0 m/s 609 mmHg 35%
    09:00 +29°C° 0 mm 1 m/s 610 mmHg 28%
    10:00 +31°C° 0 mm 1 m/s 611 mmHg 20%
    11:00 +33°C° 0 mm 1 m/s 611 mmHg 13%
    12:00 +35°C° 0 mm 2 m/s 611 mmHg 12%
    13:00 +36°C° 0 mm 2 m/s 611 mmHg 10%
    14:00 +37°C° 0 mm 2 m/s 611 mmHg 9%
    15:00 +37°C° 0 mm 3 m/s 611 mmHg 9%
    16:00 +38°C° 0 mm 3 m/s 611 mmHg 9%
    17:00 +38°C° 0 mm 3 m/s 611 mmHg 9%
    18:00 +35°C° 0 mm 3 m/s 610 mmHg 16%
    19:00 +33°C° 0 mm 3 m/s 610 mmHg 22%
    20:00 +30°C° 0 mm 3 m/s 609 mmHg 29%
    21:00 +28°C° 0 mm 3 m/s 609 mmHg 37%
    22:00 +27°C° 0 mm 2 m/s 609 mmHg 46%
    23:00 +26°C° 0 mm 1 m/s 609 mmHg 55%

    20 Juillet, Samedi

    Heure Température Précipitation Vent Pression Humidité
    00:00 +25°C° 0 mm 1 m/s 609 mmHg 58%
    01:00 +24°C° 0 mm 1 m/s 608 mmHg 61%
    02:00 +23°C° 0 mm 1 m/s 608 mmHg 65%
    03:00 +23°C° 0 mm 1 m/s 608 mmHg 67%
    04:00 +20°C° 0 mm 0 m/s 607 mmHg 69%
    05:00 +19°C° 0 mm 0 m/s 607 mmHg 70%
    06:00 +22°C° 0 mm 0 m/s 608 mmHg 58%
    07:00 +24°C° 0 mm 0 m/s 609 mmHg 46%
    08:00 +28°C° 0 mm 1 m/s 610 mmHg 34%
    09:00 +30°C° 0 mm 1 m/s 611 mmHg 27%
    10:00 +32°C° 0 mm 1 m/s 611 mmHg 19%
    11:00 +34°C° 0 mm 1 m/s 612 mmHg 12%
    12:00 +36°C° 0 mm 2 m/s 612 mmHg 10%
    13:00 +37°C° 0 mm 3 m/s 612 mmHg 9%
    14:00 +38°C° 0 mm 3 m/s 612 mmHg 8%
    15:00 +38°C° 0 mm 4 m/s 612 mmHg 8%
    16:00 +39°C° 0 mm 5 m/s 612 mmHg 8%
    17:00 +39°C° 0 mm 6 m/s 612 mmHg 8%
    18:00 +36°C° 0 mm 5 m/s 611 mmHg 12%
    19:00 +34°C° 0 mm 4 m/s 611 mmHg 16%
    20:00 +30°C° 0 mm 4 m/s 610 mmHg 20%
    21:00 +28°C° 0 mm 3 m/s 610 mmHg 25%
    22:00 +27°C° 0 mm 2 m/s 609 mmHg 31%
    23:00 +25°C° 0 mm 1 m/s 609 mmHg 36%

    21 Juillet, Dimanche

    Heure Température Précipitation Vent Pression Humidité
    00:00 +24°C° 0 mm 1 m/s 609 mmHg 34%
    01:00 +24°C° 0 mm 1 m/s 608 mmHg 32%
    02:00 +23°C° 0 mm 1 m/s 607 mmHg 30%
    03:00 +22°C° 0 mm 1 m/s 607 mmHg 28%
    04:00 +22°C° 0 mm 1 m/s 607 mmHg 26%
    05:00 +21°C° 0 mm 1 m/s 607 mmHg 25%
    06:00 +24°C° 0 mm 1 m/s 608 mmHg 21%
    07:00 +26°C° 0 mm 1 m/s 609 mmHg 18%
    08:00 +29°C° 0 mm 1 m/s 610 mmHg 14%
    09:00 +31°C° 0 mm 1 m/s 610 mmHg 13%
    10:00 +32°C° 0 mm 2 m/s 611 mmHg 11%
    11:00 +35°C° 0 mm 3 m/s 611 mmHg 10%
    12:00 +36°C° 0 mm 4 m/s 611 mmHg 9%
    13:00 +39°C° 0 mm 5 m/s 611 mmHg 8%
    14:00 +40°C° 0 mm 6 m/s 611 mmHg 7%
    15:00 +39°C° 0 mm 7 m/s 611 mmHg 7%
    16:00 +39°C° 0 mm 8 m/s 611 mmHg 8%
    17:00 +39°C° 0 mm 9 m/s 610 mmHg 8%
    18:00 +35°C° 0 mm 7 m/s 610 mmHg 9%
    19:00 +33°C° 0 mm 5 m/s 609 mmHg 10%
    20:00 +29°C° 0 mm 3 m/s 609 mmHg 11%
    21:00 +28°C° 0 mm 3 m/s 608 mmHg 13%
    22:00 +27°C° 0 mm 2 m/s 608 mmHg 14%
    23:00 +25°C° 0 mm 2 m/s 608 mmHg 15%
    Voir plus